Location: Del Amo
(33.8464°N, 118.2104°W)
Time: 19:08:42
(UTC+00:00)

S-56A Canister/Altair - Pass Details

Date: 17 September 2024
Orbit: 636 x 2487 km, 38.9° (Epoch: 14 October)

Event Time Altitude Azimuth Distance (km) Brightness Sun altitude
Rises 00:39:43 0° 228° (SW) 2,928 11.5 15.2°
Reaches altitude 10° 00:41:55 10° 222° (SW) 2,071 10.7 14.7°
Maximum altitude 00:46:22 48° 147° (SSE) 975 8.1 13.8°
Drops below altitude 10° 00:52:09 10° 74° (ENE) 2,678 9.7 12.6°
Sets 00:55:20 0° 70° (ENE) 3,897 10.5 12.0°
